FW1387 Mount Pleasant SC US current weather conditions

sailwx.info

Wind from 187

Air temperature 18.3° C
Dewpoint 16.8° C

Last reported at 2019-Dec-09 22:02 UTC.
Time now 2019-Dec-09 23:12 UTC

Location: N 32°50' W 079°49'.
View on Google Maps.

See reports from other nearby stations

  
Tides and Currents Weather Stations Pressure Air Temp Water Temp Dewpoint Dewpoint Depression Visibility Wind Speed Wind Dir Waves Ship Positions
date/time (UTC)wind fromknots sea level pressurealtimeterstation pressurevisibilityair tempwater tempwave heightnotes
2019-Dec-09 22:02 187 18.3
2019-Dec-09 21:57 186 18.3
2019-Dec-09 21:52 190 18.3
2019-Dec-09 21:47 190 18.3
2019-Dec-09 21:42 198 18.3
2019-Dec-09 21:37 159 18.9
2019-Dec-09 21:32 159 18.9
2019-Dec-09 21:27 159 18.9
2019-Dec-09 21:22 159 18.9
2019-Dec-09 21:17 159 18.9
2019-Dec-09 21:12 186 18.9
2019-Dec-09 21:07 187 18.9
2019-Dec-09 21:02 188 18.9
2019-Dec-09 20:57 189 18.9
2019-Dec-09 20:52 185 18.9
2019-Dec-09 20:47 189 18.9
2019-Dec-09 20:42 175 18.9
2019-Dec-09 20:37 175 18.9
2019-Dec-09 20:32 186 18.9
2019-Dec-09 20:27 186 18.9
2019-Dec-09 20:22 177 18.9
2019-Dec-09 20:17 198 18.9
2019-Dec-09 20:12 198 18.9
2019-Dec-09 20:07 198 18.9
2019-Dec-09 20:02 175 19.4
2019-Dec-09 19:57 192 19.4
2019-Dec-09 19:52 187 19.4
2019-Dec-09 19:47 187 20.0
2019-Dec-09 19:42 192 20.0
2019-Dec-09 19:37 194 20.0
2019-Dec-09 19:32 223 20.6
2019-Dec-09 19:27 230 20.6
2019-Dec-09 19:22 167 21.1
2019-Dec-09 19:17 195 21.1
2019-Dec-09 19:12 191 21.1
2019-Dec-09 19:07 202 21.1
2019-Dec-09 19:02 170 21.1
2019-Dec-09 18:57 166 21.7
2019-Dec-09 18:52 190 21.7
2019-Dec-09 18:47 190 21.7
2019-Dec-09 18:42 197 21.7
2019-Dec-09 18:37 194 21.7
2019-Dec-09 18:32 193 21.7
2019-Dec-09 18:27 201 21.7
2019-Dec-09 18:22 162 21.7
2019-Dec-09 18:17 186 21.1
2019-Dec-09 18:12 193 21.1
2019-Dec-09 18:07 197 20.6
2019-Dec-09 18:02 286 20.0
2019-Dec-09 17:57 254 19.4
2019-Dec-09 17:52 218 18.9
2019-Dec-09 17:47 216 18.3
2019-Dec-09 17:42 063 17.8
2019-Dec-09 17:27 187 17.8
2019-Dec-09 17:22 187 17.8
2019-Dec-09 17:17 189 17.2
2019-Dec-09 17:12 189 17.8
2019-Dec-09 17:07 104 17.8
2019-Dec-09 17:02 104 17.2
2019-Dec-09 16:57 104 17.2
2019-Dec-09 16:52 132 17.2
2019-Dec-09 16:47 132 16.7
2019-Dec-09 16:42 132 16.7
2019-Dec-09 16:37 172 16.7
2019-Dec-09 16:32 172 16.7
2019-Dec-09 16:27 172 16.7
2019-Dec-09 16:22 040 16.1
2019-Dec-09 16:17 040 16.1
2019-Dec-09 16:12 040 15.6
2019-Dec-09 16:07 040 15.6
2019-Dec-09 16:02 040 15.6
2019-Dec-09 15:57 040 15.6
2019-Dec-09 15:52 040 15.0
2019-Dec-09 15:47 040 15.0
2019-Dec-09 15:42 040 15.0
2019-Dec-09 15:37 040 14.4
2019-Dec-09 15:32 040 14.4
2019-Dec-09 15:27 040 13.9
2019-Dec-09 15:22 040 13.9
2019-Dec-09 15:17 040 13.9
2019-Dec-09 15:12 041 13.3
2019-Dec-09 15:07 039 13.3
2019-Dec-09 15:02 039 13.3
2019-Dec-09 14:57 039 13.3
2019-Dec-09 14:52 039 13.3
2019-Dec-09 14:47 039 13.3
2019-Dec-09 14:42 039 12.8
2019-Dec-09 14:37 039 12.8
2019-Dec-09 14:32 039 12.8
2019-Dec-09 14:27 039 12.8
2019-Dec-09 14:22 039 12.2
2019-Dec-09 14:17 043 12.2
2019-Dec-09 14:12 043 12.2
2019-Dec-09 14:07 043 12.2
2019-Dec-09 14:02 043 12.2
2019-Dec-09 13:57 043 12.2
2019-Dec-09 13:52 043 12.2
2019-Dec-09 13:47 043 12.2
2019-Dec-09 13:42 043 12.2
2019-Dec-09 13:37 043 11.7
2019-Dec-09 13:32 043 11.7
2019-Dec-09 13:27 043 11.7
2019-Dec-09 13:22 043 11.7
2019-Dec-09 13:17 040 11.7
2019-Dec-09 13:12 040 11.7
2019-Dec-09 13:07 040 11.7
2019-Dec-09 13:02 040 11.7
2019-Dec-09 12:57 040 11.7
2019-Dec-09 12:52 040 11.7
2019-Dec-09 12:47 040 11.7
2019-Dec-09 12:42 040 11.1
2019-Dec-09 12:37 038 11.1
2019-Dec-09 12:32 038 11.1
2019-Dec-09 12:27 038 11.1
2019-Dec-09 12:22 041 11.1
2019-Dec-09 12:17 041 11.1
2019-Dec-09 12:12 037 11.1
2019-Dec-09 12:07 037 11.1
2019-Dec-09 12:02 037 11.1
2019-Dec-09 11:57 037 11.1
2019-Dec-09 11:52 037 11.1
2019-Dec-09 11:47 037 11.1
2019-Dec-09 11:42 037 11.1
2019-Dec-09 11:37 037 11.1
2019-Dec-09 11:32 037 11.1
2019-Dec-09 11:27 037 11.1
2019-Dec-09 11:22 037 11.1
2019-Dec-09 11:17 037 11.1
2019-Dec-09 11:12 037 11.1
2019-Dec-09 11:07 037 11.1
2019-Dec-09 11:02 037 11.1
2019-Dec-09 10:57 037 11.1
2019-Dec-09 10:52 037 11.1
2019-Dec-09 10:47 037 11.1
2019-Dec-09 10:42 044 11.1
2019-Dec-09 10:37 044 11.1
2019-Dec-09 10:32 045 11.1
2019-Dec-09 10:27 045 11.1
2019-Dec-09 10:22 045 11.1
2019-Dec-09 10:17 030 11.1
2019-Dec-09 10:12 030 11.1
2019-Dec-09 10:07 030 11.1
2019-Dec-09 10:02 038 11.1
2019-Dec-09 09:57 038 11.1
2019-Dec-09 09:52 038 11.1
2019-Dec-09 09:46 038 11.1
2019-Dec-09 09:42 038 11.1
2019-Dec-09 09:37 038 10.6
2019-Dec-09 09:32 038 10.6
2019-Dec-09 09:27 032 10.6
2019-Dec-09 09:22 032 10.6
2019-Dec-09 09:17 032 10.6
2019-Dec-09 09:12 032 10.6
2019-Dec-09 09:06 032 10.6
2019-Dec-09 09:02 032 10.6
2019-Dec-09 08:57 032 10.6
2019-Dec-09 08:52 038 10.6
2019-Dec-09 08:46 038 10.6
2019-Dec-09 08:41 038 10.6
2019-Dec-09 08:36 038 10.6
2019-Dec-09 08:31 038 10.6
2019-Dec-09 08:26 038 10.6
2019-Dec-09 08:21 038 10.6
2019-Dec-09 08:16 038 10.6
2019-Dec-09 08:11 038 10.6
2019-Dec-09 08:06 038 10.6
2019-Dec-09 08:01 038 10.6
2019-Dec-09 07:56 038 10.6
2019-Dec-09 07:51 038 10.6
2019-Dec-09 07:46 038 10.6
2019-Dec-09 07:41 038 10.6
2019-Dec-09 07:36 038 10.6
2019-Dec-09 07:31 038 10.6
2019-Dec-09 07:26 038 10.6
2019-Dec-09 07:21 038 10.6
2019-Dec-09 07:16 038 10.6
2019-Dec-09 07:11 038 10.6
2019-Dec-09 07:06 038 10.6
2019-Dec-09 07:01 038 10.6
2019-Dec-09 06:56 038 10.6
2019-Dec-09 06:51 038 10.6
2019-Dec-09 06:46 038 10.6
2019-Dec-09 06:41 038 10.6
2019-Dec-09 06:36 038 10.6
2019-Dec-09 06:31 038 10.6
2019-Dec-09 06:26 037 10.6
2019-Dec-09 06:21 037 11.1
2019-Dec-09 06:16 037 11.1
2019-Dec-09 06:11 037 11.1
2019-Dec-09 06:06 037 11.1
2019-Dec-09 06:01 037 11.1
2019-Dec-09 05:56 037 11.1
2019-Dec-09 05:51 037 11.1
2019-Dec-09 05:46 037 11.1
2019-Dec-09 05:41 037 11.1
2019-Dec-09 05:36 037 11.1
2019-Dec-09 05:31 040 11.1
2019-Dec-09 05:26 040 11.1
2019-Dec-09 05:21 044 11.1
2019-Dec-09 05:16 037 11.1
2019-Dec-09 05:11 037 11.1
2019-Dec-09 05:06 038 11.7
2019-Dec-09 05:01 036 11.7
2019-Dec-09 04:56 036 11.7
2019-Dec-09 04:51 036 11.7
2019-Dec-09 04:46 037 11.7
2019-Dec-09 04:41 037 11.7
2019-Dec-09 04:36 036 11.7
2019-Dec-09 04:31 036 11.7
2019-Dec-09 04:26 036 11.7
2019-Dec-09 04:21 036 11.7
2019-Dec-09 04:16 036 11.7
2019-Dec-09 04:11 036 11.7
2019-Dec-09 04:06 036 11.7
2019-Dec-09 04:01 048 11.7
2019-Dec-09 03:56 047 11.7
2019-Dec-09 03:51 048 11.7
2019-Dec-09 03:46 048 11.7
2019-Dec-09 03:41 047 11.7
2019-Dec-09 03:36 048 11.7
2019-Dec-09 03:31 048 11.7
2019-Dec-09 03:26 048 11.7
2019-Dec-09 03:21 048 11.7
2019-Dec-09 03:16 048 11.7
2019-Dec-09 03:11 048 12.2
2019-Dec-09 03:06 048 12.2
2019-Dec-09 03:01 048 12.2
2019-Dec-09 02:56 048 12.2
2019-Dec-09 02:51 048 12.2
2019-Dec-09 02:46 048 12.2
2019-Dec-09 02:41 048 12.2
2019-Dec-09 02:36 048 12.2
2019-Dec-09 02:31 047 12.2
2019-Dec-09 02:26 049 12.2
2019-Dec-09 02:21 042 12.2
2019-Dec-09 02:16 042 12.2
2019-Dec-09 02:11 044 12.2
2019-Dec-09 02:06 040 12.2
2019-Dec-09 02:01 040 12.8
2019-Dec-09 01:56 042 12.8
2019-Dec-09 01:51 016 12.8
2019-Dec-09 01:46 12.8
2019-Dec-09 01:41 12.8
2019-Dec-09 01:36 355 12.8
2019-Dec-09 01:31 355 12.8
2019-Dec-09 01:26 355 12.8
2019-Dec-09 01:21 355 12.8
2019-Dec-09 01:16 355 12.8
2019-Dec-09 01:11 355 12.8
2019-Dec-09 01:06 355 12.8
2019-Dec-09 01:01 355 12.8
2019-Dec-09 00:56 351 12.8
2019-Dec-09 00:51 351 12.8
2019-Dec-09 00:46 349 13.3
2019-Dec-09 00:41 348 13.3
2019-Dec-09 00:36 348 13.3
2019-Dec-09 00:31 347 13.3
2019-Dec-09 00:26 346 13.3
2019-Dec-09 00:21 346 13.3
2019-Dec-09 00:16 346 13.3
2019-Dec-09 00:11 346 13.3
2019-Dec-09 00:06 346 13.3
2019-Dec-09 00:01 346 13.3
2019-Dec-08 23:56 347 13.3
2019-Dec-08 23:51 347 13.9
2019-Dec-08 23:46 347 13.9
2019-Dec-08 23:41 347 13.9
2019-Dec-08 23:36 344 13.9
2019-Dec-08 23:31 344 14.4
2019-Dec-08 23:26 344 14.4
2019-Dec-08 23:21 344 14.4
2019-Dec-08 23:16 344 14.4
2019-Dec-08 23:11 344 14.4
2019-Dec-08 23:06 344 14.4
2019-Dec-08 23:01 344 15.0
2019-Dec-08 22:56 344 15.0
2019-Dec-08 22:51 344 15.0
2019-Dec-08 22:46 344 15.0
2019-Dec-08 22:41 344 15.0
2019-Dec-08 22:36 344 15.0
2019-Dec-08 22:31 344 15.6
2019-Dec-08 22:26 017 15.6
2019-Dec-08 22:21 017 15.6
2019-Dec-08 22:16 017 15.6
2019-Dec-08 22:11 019 15.6
2019-Dec-08 22:06 019 15.6
2019-Dec-08 22:01 019 15.6
2019-Dec-08 21:56 017 15.6
2019-Dec-08 21:51 017 16.1
2019-Dec-08 21:46 017 16.1
2019-Dec-08 21:41 017 16.1
2019-Dec-08 21:36 015 16.1
2019-Dec-08 21:31 015 16.7
2019-Dec-08 21:26 014 16.7
2019-Dec-08 21:21 011 16.7
2019-Dec-08 21:16 005 16.7
2019-Dec-08 21:11 219 17.2
2019-Dec-08 21:06 290 17.2
2019-Dec-08 21:01 290 17.2
2019-Dec-08 20:56 279 17.8
2019-Dec-08 20:51 267 17.8
2019-Dec-08 20:46 242 17.8
2019-Dec-08 20:41 240 17.8
2019-Dec-08 20:36 275 17.8
2019-Dec-08 20:31 273 17.8
2019-Dec-08 20:26 273 17.8
2019-Dec-08 20:21 271 17.8
2019-Dec-08 20:16 271 17.8
2019-Dec-08 20:11 245 17.2
2019-Dec-08 20:06 244 17.2
2019-Dec-08 20:01 120 17.2
2019-Dec-08 19:56 151 17.8
2019-Dec-08 19:51 150 17.8
2019-Dec-08 19:46 250 17.8
2019-Dec-08 19:41 246 17.8
2019-Dec-08 19:36 228 17.8
2019-Dec-08 19:31 154 17.8
2019-Dec-08 19:26 355 17.8
2019-Dec-08 19:21 186 17.8
2019-Dec-08 19:16 222 18.3
2019-Dec-08 19:11 281 18.3
2019-Dec-08 19:06 280 18.3
2019-Dec-08 19:01 286 18.3
2019-Dec-08 18:56 279 0 gusting 4 18.3
2019-Dec-08 18:51 038 0 gusting 4 18.9
2019-Dec-08 18:46 205 18.9
2019-Dec-08 18:41 341 18.9
2019-Dec-08 18:36 263 18.9
2019-Dec-08 18:31 262 18.9
2019-Dec-08 18:26 222 18.9
2019-Dec-08 18:21 164 18.9
2019-Dec-08 18:16 164 18.9
2019-Dec-08 18:11 241 18.9
2019-Dec-08 18:06 234 18.9
2019-Dec-08 18:01 018 18.9
2019-Dec-08 17:56 329 18.9
2019-Dec-08 17:51 272 18.9
2019-Dec-08 17:46 309 18.3
2019-Dec-08 17:41 299 18.3
2019-Dec-08 17:36 129 17.8
2019-Dec-08 17:31 167 17.8
2019-Dec-08 17:26 034 0 gusting 6 17.8
2019-Dec-08 17:21 232 17.8
2019-Dec-08 17:16 295 17.8
2019-Dec-08 17:11 218 17.8
2019-Dec-08 17:06 218 17.2
2019-Dec-08 17:01 218 17.2
2019-Dec-08 16:56 226 17.2
2019-Dec-08 16:51 016 17.2
2019-Dec-08 16:46 294 17.2
2019-Dec-08 16:41 056 17.2
2019-Dec-08 16:36 275 16.7
2019-Dec-08 16:31 256 16.1
2019-Dec-08 16:26 252 16.1
2019-Dec-08 16:21 355 16.1
2019-Dec-08 16:16 346 15.6
2019-Dec-08 16:11 323 15.6
2019-Dec-08 16:06 165 15.6
2019-Dec-08 16:01 060 15.0
2019-Dec-08 15:56 240 15.0
2019-Dec-08 15:51 223 14.4
2019-Dec-08 15:46 335 14.4
2019-Dec-08 15:41 058 14.4
2019-Dec-08 15:36 058 13.9
2019-Dec-08 15:31 030 13.3
2019-Dec-08 15:26 202 12.8
2019-Dec-08 15:21 199 12.2
2019-Dec-08 15:16 034 12.2
2019-Dec-08 15:11 030 11.7
2019-Dec-08 15:06 161 11.1
2019-Dec-08 15:01 098 10.6
2019-Dec-08 14:56 144 10.0
2019-Dec-08 14:51 146 9.4
2019-Dec-08 14:46 271 8.9
2019-Dec-08 14:41 116 8.3
2019-Dec-08 14:36 076 7.8
2019-Dec-08 14:31 076 7.8
2019-Dec-08 14:26 036 7.2
2019-Dec-08 14:21 036 7.2
2019-Dec-08 14:16 088 6.7
2019-Dec-08 14:11 109 6.7
2019-Dec-08 14:06 108 6.7
2019-Dec-08 14:01 031 6.7
2019-Dec-08 13:56 019 6.7
2019-Dec-08 13:51 236 6.1
2019-Dec-08 13:46 236 6.1
2019-Dec-08 13:41 229 6.1
2019-Dec-08 13:36 238 6.1
2019-Dec-08 13:31 238 6.1
2019-Dec-08 13:26 134 6.1
2019-Dec-08 13:21 136 5.6
2019-Dec-08 13:16 138 5.6
2019-Dec-08 13:11 138 5.6
2019-Dec-08 13:06 138 5.6
2019-Dec-08 13:01 139 5.0
2019-Dec-08 12:56 140 5.0
2019-Dec-08 12:51 140 5.0
2019-Dec-08 12:46 142 5.0
2019-Dec-08 12:41 164 5.0
2019-Dec-08 12:36 165 5.0
2019-Dec-08 12:31 165 5.0
2019-Dec-08 12:26 165 5.0
2019-Dec-08 12:21 167 5.0
2019-Dec-08 12:15 076 5.0
2019-Dec-08 12:10 074 5.0
2019-Dec-08 12:05 092 5.0
2019-Dec-08 12:01 094 5.0
2019-Dec-08 11:55 109 5.0
2019-Dec-08 11:50 109 5.0
2019-Dec-08 11:45 050 5.0
2019-Dec-08 11:40 050 5.6
2019-Dec-08 11:35 051 5.6
2019-Dec-08 11:30 051 5.6
2019-Dec-08 11:25 044 5.6
2019-Dec-08 11:20 044 5.6
2019-Dec-08 11:15 044 5.6
2019-Dec-08 11:10 044 5.6
2019-Dec-08 11:05 044 5.6
2019-Dec-08 11:00 044 5.6
2019-Dec-08 10:55 045 5.6
2019-Dec-08 10:50 051 5.6
2019-Dec-08 10:45 030 5.6
2019-Dec-08 10:40 030 5.6
2019-Dec-08 10:35 024 5.6
2019-Dec-08 10:30 313 6.1
2019-Dec-08 10:25 313 6.1
2019-Dec-08 10:20 317 6.1
2019-Dec-08 10:15 005 6.1
2019-Dec-08 10:10 186 6.1
2019-Dec-08 10:05 270 6.1
2019-Dec-08 10:00 089 6.1
2019-Dec-08 09:55 089 6.7
2019-Dec-08 09:50 090 6.7
2019-Dec-08 09:45 090 6.7
2019-Dec-08 09:40 090 6.7
2019-Dec-08 09:35 082 6.7
2019-Dec-08 09:30 088 6.7
2019-Dec-08 09:25 086 6.7
2019-Dec-08 09:20 082 7.2
2019-Dec-08 09:15 082 7.2
2019-Dec-08 09:10 086 7.2
2019-Dec-08 09:05 083 7.2
2019-Dec-08 09:00 071 7.2
2019-Dec-08 08:55 073 7.2
2019-Dec-08 08:50 073 7.2
2019-Dec-08 08:45 073 7.2
2019-Dec-08 08:40 073 7.2
2019-Dec-08 08:35 074 7.2
2019-Dec-08 08:30 074 7.2
2019-Dec-08 08:25 074 7.2
2019-Dec-08 08:20 074 7.2
2019-Dec-08 08:15 049 7.2
2019-Dec-08 08:10 049 7.2
2019-Dec-08 08:05 050 7.8
2019-Dec-08 08:00 049 7.8
2019-Dec-08 07:55 049 7.8
2019-Dec-08 07:50 049 7.8
2019-Dec-08 07:45 049 7.8
2019-Dec-08 07:40 049 7.8
2019-Dec-08 07:35 049 7.8
2019-Dec-08 07:30 062 7.8
2019-Dec-08 07:25 051 7.8
2019-Dec-08 07:20 150 7.8
2019-Dec-08 07:15 150 7.8
2019-Dec-08 07:10 150 8.3
2019-Dec-08 07:05 150 8.3
2019-Dec-08 07:00 163 8.3
2019-Dec-08 06:55 165 8.3
2019-Dec-08 06:50 166 8.3
2019-Dec-08 06:45 069 8.3
2019-Dec-08 06:40 069 8.3
2019-Dec-08 06:35 069 8.3
2019-Dec-08 06:30 065 8.3
2019-Dec-08 06:25 082 8.3
2019-Dec-08 06:20 082 8.3
2019-Dec-08 06:15 067 8.3
2019-Dec-08 06:10 066 8.3
2019-Dec-08 06:05 069 8.9
2019-Dec-08 06:00 069 8.9
2019-Dec-08 05:55 074 8.9
2019-Dec-08 05:50 086 8.9
2019-Dec-08 05:45 049 8.9
2019-Dec-08 05:40 058 8.9
2019-Dec-08 05:35 042 8.9
2019-Dec-08 05:30 042 8.9
2019-Dec-08 05:25 283 8.9
2019-Dec-08 05:20 271 8.9
2019-Dec-08 05:15 271 8.9
2019-Dec-08 05:10 275 9.4
2019-Dec-08 05:05 050 9.4
2019-Dec-08 05:00 050 9.4
2019-Dec-08 04:55 051 9.4
2019-Dec-08 04:50 045 9.4
2019-Dec-08 04:45 055 9.4
2019-Dec-08 04:40 055 9.4
2019-Dec-08 04:35 094 9.4
2019-Dec-08 04:30 036 9.4
2019-Dec-08 04:25 069 9.4
2019-Dec-08 04:20 322 10.0
2019-Dec-08 04:15 323 10.0
2019-Dec-08 04:10 310 10.0
2019-Dec-08 04:05 309 10.0
2019-Dec-08 04:00 069 10.0
2019-Dec-08 03:55 069 10.0
2019-Dec-08 03:50 069 10.0
2019-Dec-08 03:45 068 10.0
2019-Dec-08 03:40 049 10.6
2019-Dec-08 03:35 045 10.6
2019-Dec-08 03:30 045 10.6
2019-Dec-08 03:25 045 10.6
2019-Dec-08 03:20 042 10.6
2019-Dec-08 03:15 042 10.6
2019-Dec-08 03:10 042 10.6
2019-Dec-08 03:05 042 10.6
2019-Dec-08 03:00 042 10.6
2019-Dec-08 02:55 042 10.6
2019-Dec-08 02:50 042 10.6
2019-Dec-08 02:45 042 10.6
2019-Dec-08 02:40 042 10.6
2019-Dec-08 02:35 042 10.6
2019-Dec-08 02:30 042 10.6
2019-Dec-08 02:25 042 10.6
2019-Dec-08 02:20 042 10.6
2019-Dec-08 02:15 042 10.6
2019-Dec-08 02:10 042 10.6
2019-Dec-08 02:05 042 10.6
2019-Dec-08 02:00 042 10.6
2019-Dec-08 01:55 042 10.6
2019-Dec-08 01:50 042 10.6
2019-Dec-08 01:45 042 11.1
2019-Dec-08 01:40 042 11.1
2019-Dec-08 01:35 042 11.1
2019-Dec-08 01:30 042 11.1
2019-Dec-08 01:25 042 11.1
2019-Dec-08 01:20 042 11.1
2019-Dec-08 01:15 042 11.1
2019-Dec-08 01:10 042 11.7
2019-Dec-08 01:05 042 11.7
2019-Dec-08 01:00 042 11.7
2019-Dec-08 00:55 042 11.7
2019-Dec-08 00:50 042 11.7
2019-Dec-08 00:45 042 11.7
2019-Dec-08 00:40 042 11.7
2019-Dec-08 00:35 042 11.7
2019-Dec-08 00:30 042 12.2
2019-Dec-08 00:25 042 12.2
2019-Dec-08 00:20 042 12.2
2019-Dec-08 00:15 042 12.2
2019-Dec-08 00:10 042 12.2
2019-Dec-08 00:05 042 12.2
2019-Dec-08 00:00 042 12.8
2019-Dec-07 23:55 042 12.8
2019-Dec-07 23:50 042 12.8
2019-Dec-07 23:45 043 12.8
2019-Dec-07 23:40 044 12.8
2019-Dec-07 23:35 044 12.8
2019-Dec-07 23:30 044 12.8
2019-Dec-07 23:25 055 12.8
2019-Dec-07 23:20 042 12.8
2019-Dec-07 23:15 052 12.8
2019-Dec-07 23:10 047 12.8
2019-Dec-07 23:05 044 12.8
2019-Dec-07 23:00 047 12.8